Weather History for Prestwick, United Kingdom

Change the Weather History Date:

Wednesday, November 14, 2012

  Actual Average Record
Temperature  
Mean Temperature 46 °F -  
Max Temperature 51 °F 46 °F 57 °F (2008)
Min Temperature 41 °F 36 °F 30 °F (2010)
Degree Days  
Heating Degree Days 19    
Moisture  
Dew Point 46 °F    
Average Humidity 95    
Maximum Humidity 100    
Minimum Humidity 93    
Precipitation  
Precipitation 0.00 in - - ()
Sea Level Pressure  
Sea Level Pressure 30.18 in    
Wind  
Wind Speed 4 mph ()    
Max Wind Speed 8 mph    
Max Gust Speed -    
Visibility 4.8 miles    
Events Rain    
Averages and records for this station are not official NWS values.
T = Trace of Precipitation, MM = Missing Value Source: Averaged Metar Reports

Daily Weather History Graph

Daily Weather History Graph

Search for Another Location

Airport:

Trip Planner

Search our weather history database for the weather conditions in past years. The results will help you decide how hot, cold, wet, or windy it might be!

Date:

Astronomy

Nov. 14, 2012 Rise Set
Actual Time 7:51 AM GMT 4:13 PM GMT
Civil Twilight 7:09 AM GMT 4:55 PM GMT
Nautical Twilight 6:24 AM GMT 5:40 PM GMT
Astronomical Twilight 5:41 AM GMT 6:23 PM GMT
Moon 8:33 AM GMT (11/14) 4:37 PM GMT (11/14)
Length of Visible Light 9h 45m
Length of Day
8h 22m
New Moon, 1% of the Moon is Illuminated
Nov 14
New Moon
Nov 20
First Quarter
Nov 28
Full
Dec 6
Last Quarter
Dec 13
New

Hourly Weather History & Observations

Time (GMT) Temp. Windchill Dew Point Humidity Pressure Visibility Wind Dir Wind Speed Gust Speed Precip Events Conditions
12:20 AM 48.2 °F - 48.2 °F 100% 30.09 in 6.2 mi ESE 3.5 mph - N/A Rain Light Rain
12:50 AM 48.2 °F - 48.2 °F 100% 30.09 in 6.2 mi East 5.8 mph - N/A Rain Light Rain
1:50 AM 48.2 °F - 48.2 °F 100% 30.09 in 5.6 mi SE 2.3 mph - N/A Rain Light Rain
2:50 AM 50.0 °F - 48.2 °F 94% 30.09 in 5.6 mi Calm Calm - N/A Rain Light Rain
3:50 AM 51.8 °F - 50.0 °F 94% 30.09 in 2.5 mi WSW 8.1 mph - N/A Rain Light Rain
4:50 AM 51.8 °F - 50.0 °F 94% 30.12 in 3.1 mi SW 6.9 mph - N/A Rain Light Rain
5:50 AM 51.8 °F - 50.0 °F 94% 30.12 in 3.1 mi SW 3.5 mph - N/A Rain Light Rain
6:20 AM 51.8 °F - 50.0 °F 94% 30.12 in 3.1 mi SW 4.6 mph - N/A Rain Light Rain
6:50 AM 51.8 °F - 50.0 °F 94% 30.12 in 3.1 mi SW 4.6 mph - N/A Rain Light Rain
7:20 AM 51.8 °F - 50.0 °F 94% 30.15 in 5.0 mi SSW 4.6 mph - N/A Rain Light Rain
7:50 AM 51.8 °F - 50.0 °F 94% 30.15 in 5.0 mi SW 4.6 mph - N/A Rain Light Rain
8:20 AM 50.0 °F - 48.2 °F 94% 30.18 in 5.0 mi West 4.6 mph - N/A Rain Light Rain
8:50 AM 50.0 °F - 48.2 °F 94% 30.18 in 5.0 mi Calm Calm - N/A Rain Light Rain
9:20 AM 50.0 °F - 48.2 °F 94% 30.18 in 3.7 mi WNW 2.3 mph - N/A Rain Light Rain
9:50 AM 50.0 °F - 48.2 °F 94% 30.18 in 3.1 mi WNW 6.9 mph - N/A Rain Light Rain
10:20 AM 48.2 °F - 48.2 °F 100% 30.18 in 3.1 mi WNW 4.6 mph - N/A Rain Light Rain
10:50 AM 48.2 °F - 48.2 °F 100% 30.18 in 3.1 mi WNW 2.3 mph - N/A Rain Light Rain
11:20 AM 48.2 °F - 48.2 °F 100% 30.18 in 3.1 mi WNW 2.3 mph - N/A Rain Light Rain
11:50 AM 48.2 °F - 48.2 °F 100% 30.18 in 3.1 mi Calm Calm - N/A   Light Drizzle
12:20 PM 48.2 °F - 48.2 °F 100% 30.18 in 3.1 mi NW 3.5 mph - N/A   Light Drizzle
12:50 PM 48.2 °F - 48.2 °F 100% 30.18 in 1.9 mi WNW 5.8 mph - N/A   Light Drizzle
1:20 PM 48.2 °F - 48.2 °F 100% 30.18 in 2.5 mi WNW 6.9 mph - N/A   Mostly Cloudy
1:50 PM 48.2 °F - 48.2 °F 100% 30.18 in 2.5 mi WNW 5.8 mph - N/A   Mostly Cloudy
2:20 PM 48.2 °F - 46.4 °F 93% 30.21 in 2.5 mi West 3.5 mph - N/A   Mostly Cloudy
2:50 PM 48.2 °F - 46.4 °F 93% 30.21 in 6.2 mi Calm Calm - N/A Rain Light Rain
3:20 PM 48.2 °F - 46.4 °F 93% 30.21 in 6.2 mi SSW 3.5 mph - N/A Rain Light Rain
3:50 PM 48.2 °F - 46.4 °F 93% 30.21 in 6.2 mi SSE 4.6 mph - N/A Rain Light Rain
4:20 PM 48.2 °F - 46.4 °F 93% 30.21 in 6.2 mi SE 4.6 mph - N/A Rain Light Rain
4:50 PM 48.2 °F - 46.4 °F 93% 30.21 in 6.2 mi ESE 4.6 mph - N/A   Mostly Cloudy
5:20 PM 48.2 °F - 46.4 °F 93% 30.21 in 6.2 mi SSE 5.8 mph - N/A   Mostly Cloudy
5:50 PM 48.2 °F - 46.4 °F 93% 30.21 in 6.2 mi SE 8.1 mph - N/A   Mostly Cloudy
6:20 PM 48.2 °F - 46.4 °F 93% 30.21 in 6.2 mi ESE 3.5 mph - N/A   Mostly Cloudy
6:50 PM 46.4 °F 45.2 °F 44.6 °F 93% 30.21 in 6.2 mi NW 3.5 mph - N/A   Scattered Clouds
7:20 PM 44.6 °F 43.1 °F 42.8 °F 93% 30.24 in 6.2 mi Variable 3.5 mph - N/A   Scattered Clouds
7:50 PM 44.6 °F 43.1 °F 42.8 °F 93% 30.24 in 6.2 mi NNE 3.5 mph - N/A   Scattered Clouds
8:20 PM 44.6 °F 43.1 °F 42.8 °F 93% 30.24 in 6.2 mi Variable 3.5 mph - N/A   Scattered Clouds
8:50 PM 42.8 °F - 41.0 °F 93% 30.24 in 6.2 mi Calm Calm - N/A   Scattered Clouds
9:20 PM 42.8 °F - 41.0 °F 93% 30.24 in 6.2 mi Calm Calm - N/A   Scattered Clouds
9:50 PM 41.0 °F 39.0 °F 41.0 °F 100% 30.24 in 6.2 mi East 3.5 mph - N/A   Partly Cloudy
10:20 PM 41.0 °F 37.1 °F 41.0 °F 100% 30.24 in 6.2 mi ESE 5.8 mph - N/A   Partly Cloudy
10:50 PM 41.0 °F 38.0 °F 39.2 °F 93% 30.24 in 6.2 mi East 4.6 mph - N/A   Partly Cloudy
11:20 PM 41.0 °F - 39.2 °F 93% 30.24 in 6.2 mi Calm Calm - N/A   Partly Cloudy
11:50 PM 41.0 °F - 39.2 °F 93% 30.24 in 6.2 mi Calm Calm - N/A   Partly Cloudy